Date String (YYYY-MM-DD hh:mm:ss) UTC,Instrument flags,absolute air pressure of the measurement (hPa),sample flow rate (lpm),inlet stack bypass flow (lpm),air temperature of the measurement (°C),ambient temperature measured by the external sensor (°C),aerosol sample conditioner tube jacket temperature (°C),OPC LED temperature (°C),internal box temperature (°C),relative humidity of the measurement (%),span deviation,mass concentration of particles derived from Lorenz-Mie calculation of OPC scattering (μg/m³),mass concentration of particles derived from Lorenz-Mie calculation of OPC scattering (μg/m³),mass concentration of particles derived from Lorenz-Mie calculation of OPC scattering (μg/m³)
DateTimeUTC,F1_M11,P_M11,Q1_M11,Q2_M11,T1_M11,T2_M11,T3_M11,T4_M11,T5_M11,U1_M11,ZSPAN_M11,X0_M11,X2_M11,X1_M11
2023-08-01 01:00:00,SystemResetWarning,0835.0,4.99,000.00,030.1,026.4,000.0,038.2,030.8,31.3,0000.0,0021.13,0007.48,0005.49
2023-08-01 01:01:00,SystemResetWarning,0835.1,5.01,000.00,030.0,024.9,000.0,038.1,030.5,31.6,0000.0,0019.57,0007.29,0005.40
2023-08-01 01:02:00,SystemResetWarning,0835.3,5.01,000.00,029.9,024.6,000.0,038.0,030.3,32.3,0000.0,0017.58,0007.04,0005.29
2023-08-01 01:03:00,SystemResetWarning,0835.3,5.00,000.00,029.8,024.8,000.0,038.0,030.1,32.8,0000.0,0016.08,0006.79,0005.19
2023-08-01 01:04:00,SystemResetWarning,0835.5,4.99,000.00,029.7,025.3,000.0,038.0,030.2,33.3,0000.0,0015.60,0006.61,0005.08
2023-08-01 01:05:00,SystemResetWarning,0835.5,5.00,000.00,029.6,025.8,000.0,038.0,030.4,33.7,0000.0,0016.30,0006.50,0004.97
2023-08-01 01:06:00,SystemResetWarning,0835.6,5.01,000.00,029.6,026.2,000.0,038.0,030.5,33.9,0000.0,0017.43,0006.24,0004.82
2023-08-01 01:07:00,SystemResetWarning,0835.6,5.00,000.00,029.6,026.6,000.0,038.0,030.5,34.0,0000.0,0016.72,0005.96,0004.67
2023-08-01 01:08:00,SystemResetWarning,0835.6,5.00,000.00,029.6,026.9,000.0,038.0,030.6,34.6,0000.0,0016.11,0005.69,0004.52
2023-08-01 01:09:00,SystemResetWarning,0835.6,4.97,000.00,029.6,027.2,000.0,038.0,030.7,35.0,0000.0,0015.90,0005.38,0004.38
2023-08-01 01:10:00,SystemResetWarning,0835.7,5.03,000.00,029.7,027.4,000.0,038.0,030.8,35.4,0000.0,0015.21,0005.20,0004.26
2023-08-01 01:11:00,SystemResetWarning,0835.9,4.97,000.00,029.9,027.6,000.0,038.0,031.0,34.8,0000.0,0014.87,0005.08,0004.18
2023-08-01 01:12:00,SystemResetWarning,0836.0,5.01,000.00,030.1,027.8,000.0,038.0,031.0,34.5,0000.0,0014.66,0004.96,0004.09
2023-08-01 01:13:00,SystemResetWarning,0836.2,5.01,000.00,030.2,027.0,000.0,037.9,031.0,34.2,0000.0,0013.92,0004.79,0004.00
2023-08-01 01:14:00,SystemResetWarning,0836.2,4.98,000.00,030.3,025.7,000.0,037.9,030.8,35.6,0000.0,0013.68,0004.66,0003.91
2023-08-01 01:15:00,SystemResetWarning,0836.2,5.04,000.00,030.4,025.4,000.0,037.9,030.8,36.2,0000.0,0013.86,0004.58,0003.84
2023-08-01 01:16:00,SystemResetWarning,0836.3,4.98,000.00,030.6,025.6,000.0,037.9,030.8,36.5,0000.0,0012.29,0004.41,0003.76
2023-08-01 01:17:00,SystemResetWarning,0836.2,5.00,000.00,030.9,026.0,000.0,038.0,030.9,36.2,0000.0,0009.72,0004.29,0003.70
2023-08-01 01:18:00,SystemResetWarning,0836.3,5.03,000.00,031.3,026.4,000.0,038.1,031.1,35.0,0000.0,0010.18,0004.27,0003.63
2023-08-01 01:19:00,SystemResetWarning,0836.4,4.97,000.00,031.6,026.8,000.0,038.3,031.3,34.4,0000.0,0010.83,0004.20,0003.56
2023-08-01 01:20:00,SystemResetWarning,0836.5,5.00,000.00,031.8,027.1,000.0,038.4,031.3,33.5,0000.0,0010.36,0004.12,0003.49
2023-08-01 01:21:00,SystemResetWarning,0836.5,5.02,000.00,031.9,027.3,000.0,038.6,031.3,32.6,0000.0,0010.08,0004.13,0003.46
2023-08-01 01:22:00,SystemResetWarning,0836.7,5.00,000.00,032.0,027.6,000.0,038.7,031.4,32.2,0000.0,0010.01,0004.16,0003.44
2023-08-01 01:23:00,SystemResetWarning,0836.8,4.99,000.00,032.0,027.7,000.0,038.9,031.4,32.1,0000.0,0010.17,0004.18,0003.41
2023-08-01 01:24:00,SystemResetWarning,0837.0,4.99,000.00,032.1,027.8,000.0,039.0,031.5,32.8,0000.0,0010.35,0004.23,0003.41
2023-08-01 01:25:00,SystemResetWarning,0837.1,5.00,000.00,032.1,026.6,000.0,039.0,031.3,33.3,0000.0,0010.50,0004.29,0003.41
2023-08-01 01:26:00,SystemResetWarning,0837.1,5.00,000.00,032.0,025.5,000.0,039.0,031.1,33.9,0000.0,0009.80,0004.30,0003.40
2023-08-01 01:27:00,SystemResetWarning,0837.2,5.01,000.00,031.9,025.3,000.0,039.0,030.9,34.2,0000.0,0009.69,0004.35,0003.41
2023-08-01 01:28:00,SystemResetWarning,0837.2,4.99,000.00,031.7,025.6,000.0,039.1,030.9,34.9,0000.0,0009.97,0004.43,0003.41
2023-08-01 01:29:00,SystemResetWarning,0837.2,5.00,000.00,031.7,026.0,000.0,039.2,031.0,35.4,0000.0,0009.90,0004.52,0003.43
2023-08-01 01:30:00,SystemResetWarning,0837.2,5.01,000.00,031.9,026.4,000.0,039.2,031.2,35.3,0000.0,0009.21,0004.58,0003.48
2023-08-01 01:31:00,SystemResetWarning,0837.3,5.01,000.00,032.2,026.7,000.0,039.3,031.4,34.8,0000.0,0009.30,0004.72,0003.52
2023-08-01 01:32:00,SystemResetWarning,0837.3,4.97,000.00,032.3,027.0,000.0,039.3,031.5,34.6,0000.0,0009.65,0004.82,0003.53
2023-08-01 01:33:00,SystemResetWarning,0837.3,5.02,000.00,032.5,027.1,000.0,039.4,031.6,34.4,0000.0,0010.14,0004.85,0003.54
2023-08-01 01:34:00,SystemResetWarning,0837.3,4.99,000.00,032.6,026.8,000.0,039.3,031.6,34.4,0000.0,0010.78,0004.92,0003.56
2023-08-01 01:35:00,SystemResetWarning,0837.2,4.99,000.00,032.6,026.7,000.0,039.4,031.4,34.6,0000.0,0011.18,0005.07,0003.63
2023-08-01 01:36:00,SystemResetWarning,0837.2,4.99,000.00,032.4,026.9,000.0,039.5,031.4,35.0,0000.0,0012.27,0005.20,0003.71
2023-08-01 01:37:00,SystemResetWarning,0837.2,5.03,000.00,032.5,027.1,000.0,039.6,031.4,35.3,0000.0,0012.60,0005.35,0003.81
2023-08-01 01:38:00,SystemResetWarning,0837.2,4.98,000.00,032.7,027.3,000.0,039.7,031.6,34.7,0000.0,0012.89,0005.46,0003.89
2023-08-01 01:39:00,SystemResetWarning,0837.2,5.01,000.00,032.8,027.5,000.0,039.8,031.7,34.5,0000.0,0013.28,0005.59,0003.96
2023-08-01 01:40:00,SystemResetWarning,0837.2,5.00,000.00,032.8,027.7,000.0,039.8,031.7,34.3,0000.0,0013.19,0005.60,0004.01
2023-08-01 01:41:00,SystemResetWarning,0837.2,4.99,000.00,032.8,027.8,000.0,039.9,031.7,34.3,0000.0,0013.06,0005.58,0004.01
2023-08-01 01:42:00,SystemResetWarning,0837.3,4.99,000.00,032.8,027.9,000.0,040.0,031.8,34.2,0000.0,0013.04,0005.57,0004.04
2023-08-01 01:43:00,SystemResetWarning,0837.2,5.00,000.00,032.8,026.8,000.0,039.9,031.7,34.0,0000.0,0013.87,0005.55,0004.08
2023-08-01 01:44:00,SystemResetWarning,0837.2,5.00,000.00,032.8,025.6,000.0,039.8,031.5,34.0,0000.0,0013.73,0005.59,0004.16
2023-08-01 01:45:00,SystemResetWarning,0837.2,5.01,000.00,032.7,025.5,000.0,039.8,031.3,33.8,0000.0,0013.19,0005.66,0004.25
2023-08-01 01:46:00,SystemResetWarning,0837.2,5.00,000.00,032.4,025.7,000.0,039.9,031.1,33.3,0000.0,0012.88,0005.67,0004.31
2023-08-01 01:47:00,SystemResetWarning,0837.2,4.99,000.00,032.3,026.1,000.0,039.9,031.2,33.0,0000.0,0011.96,0005.68,0004.34
2023-08-01 01:48:00,SystemResetWarning,0837.1,4.99,000.00,032.2,026.5,000.0,040.0,031.3,33.8,0000.0,0011.83,0005.69,0004.39
2023-08-01 01:49:00,SystemResetWarning,0837.0,5.01,000.00,032.1,026.8,000.0,040.0,031.3,34.5,0000.0,0011.74,0005.71,0004.43
2023-08-01 01:50:00,SystemResetWarning,0836.9,5.01,000.00,032.1,027.1,000.0,040.0,031.4,34.8,0000.0,0011.60,0005.73,0004.47
2023-08-01 01:51:00,SystemResetWarning,0836.9,5.00,000.00,032.0,027.3,000.0,039.9,031.5,34.0,0000.0,0011.76,0005.83,0004.53
2023-08-01 01:52:00,SystemResetWarning,0837.0,5.00,000.00,032.0,027.5,000.0,039.9,031.5,33.6,0000.0,0012.22,0005.99,0004.63
2023-08-01 01:53:00,SystemResetWarning,0836.9,4.99,000.00,031.9,027.7,000.0,039.9,031.6,34.5,0000.2,0012.62,0006.10,0004.71
2023-08-01 01:54:00,SystemResetWarning,0836.9,4.99,000.00,031.9,027.9,000.0,039.9,031.6,35.3,0000.1,0011.65,0006.15,0004.77
2023-08-01 01:55:00,SystemResetWarning,0836.9,5.02,000.00,032.0,028.0,000.0,039.9,031.8,35.2,0000.0,0011.58,0006.22,0004.78
2023-08-01 01:56:00,SystemResetWarning,0836.9,4.99,000.00,032.3,028.0,000.0,039.9,031.9,34.6,0000.0,0011.70,0006.26,0004.79
2023-08-01 01:57:00,SystemResetWarning,0837.0,4.99,000.00,032.5,026.7,000.0,039.7,031.8,33.9,0000.0,0012.11,0006.28,0004.79
2023-08-01 01:58:00,SystemResetWarning,0837.0,5.01,000.00,032.5,025.6,000.0,039.6,031.6,33.6,0000.0,0012.11,0006.26,0004.80
2023-08-01 01:59:00,SystemResetWarning,0837.0,5.01,000.00,032.4,025.4,000.0,039.6,031.2,33.6,0000.0,0012.20,0006.30,0004.79
